Hourly Weather Roundup
Issued by NWS Central Illinois

Home | Current Version | Previous Version | Text Only | Print | Product List | Glossary On
Versions: 1 2 3 4 5 6 7 8 9 10 11 12 13 14 15 16 17 18 19 20 21 22 23 24 25 26 27 28 29 30 31 32 33 34 35 36 37 38 39 40 41 42 43 44 45 46 47 48 49 50
000
NZUS43 KILX 251010
HWRILX

AREA WEATHER ROUNDUP
NATIONAL WEATHER SERVICE, LINCOLN IL
400 AM CST SUN JAN 25 2015


CITY           SKY/WX    TMP DP  RH WIND       PRES   REMARKS
BLOOMINGTON    MOCLDY    34  32  92 S5        29.60F WCI  30
CHAMPAIGN      CLOUDY    34  31  88 SE6       29.62F WCI  29
DECATUR        CLOUDY    37  32  82 S3        29.61F
FLORA          CLOUDY    38  32  79 S8        29.66F WCI  32
GALESBURG      DRIZZLE   35  33  93 CALM      29.57F
JACKSONVILLE   LGT RAIN  45  35  68 SW7       29.59S
LACON          CLOUDY    34  31  90 E8        29.61S WCI  27
LAWRENCEVILLE  CLOUDY    37  33  85 S6        29.68F WCI  32
LITCHFIELD     DRIZZLE   37  32  80 SW3       29.61F
$$


CITY           SKY/WX    TMP DP  RH WIND       PRES   REMARKS
LINCOLN        CLOUDY    37  33  85 S3        29.60F
MACOMB         LGT RAIN  39  35  85 CALM      29.59F
MATTOON        CLOUDY    38  31  76 S8        29.62F WCI  32
MT CARMEL AP   CLOUDY    43  32  65 CALM      29.67F
OLNEY-NOBLE AP CLOUDY    37  32  81 CALM      29.65F
PARIS          CLOUDY    35  33  90 SE6       29.65S WCI  30
PEORIA         CLOUDY    39  32  76 CALM      29.59F
PONTIAC        CLOUDY    34  33  96 E8        29.62F WCI  27
RANTOUL        CLOUDY    34  32  94 SE5       29.62F WCI  30
ROBINSON       CLOUDY    38  33  81 S9        29.68F WCI  31
SPRINGFIELD    CLOUDY    42  33  70 S3        29.60F
TAYLORVILLE    CLOUDY    37  32  81 S9        29.60F WCI  31
$$

...REGIONAL REPORTS...


CITY           SKY/WX    TMP DP  RH WIND       PRES   REMARKS
CHICAGO O`HARE CLOUDY    33  30  88 NE9       29.67S FOG     WCI  25
KANKAKEE       CLOUDY    32  31  98 E6        29.65F FOG     WCI  26
MOLINE         CLOUDY    34  31  88 E6        29.59R WCI  29
MOUNT VERNON   CLOUDY    41  32  70 SW5       29.68S
PITTSFIELD     CLOUDY    45  35  68 CALM      29.59F
QUINCY         CLOUDY    40  33  76 SW5       29.57F
ROCKFORD       CLOUDY    33  29  85 NE17G26   29.69R WCI  22
$$


CITY           SKY/WX    TMP DP  RH WIND       PRES   REMARKS
BURLINGTON     CLOUDY    41  40  96 N5        29.55F
CEDAR RAPIDS   LGT RAIN  35  33  92 NE7       29.57S WCI  29
DES MOINES     CLOUDY    41  37  86 NE14      29.56S WCI  33
KIRKSVILLE     LGT RAIN  40  39  97 S6        29.56S
OTTUMWA        LGT RAIN  39  39 100 E5        29.54F
ST LOUIS       LGT RAIN  48  39  71 SW9       29.63F
$$


CITY           SKY/WX    TMP DP  RH WIND       PRES   REMARKS
TERRE HAUTE    CLOUDY    35  30  82 SE5       29.67F WCI  31
EVANSVILLE     CLOUDY    44  31  60 SW8       29.71F
INDIANAPOLIS   CLOUDY    32  29  88 SE5       29.67F WCI  27
LAFAYETTE      MOCLDY    31  30  96 NE3       29.66S
MADISON        CLOUDY    28  22  78 NE18G28   29.74R WCI  15
MILWAUKEE      FLURRIES  30  24  78 NE22G31   29.76R WCI  17
$$




USA.gov is the U.S. government's official web portal to all federal, state and local government web resources and services.